"startDT [UTC]","vpos","CH4 [ppm]","stdev(CH4) [ppm]","CO2 [ppm]","stdev(CO2) [ppm]","H2O [ppm]","stdev(H2O)","p_LGR [torr]","T_LGR [C]","mt1_LGR [us]","mt2_LGR [us]","T_ECpre [C]","T_EC1 [C]","T_EC2 [C]","p_inlet [hPa]","p_in [hPa]","p_out [hPa]","T_inlet [C]","RH_inlet [%]","dwpt_inlet [C]","T_vent [C]","RH_vent [%]","dwpt_vent [C]","flow_vent [l min-1]","flow_inlet [l min-1]","dwpt_sample [C]","T_room [C]"
2012-10-19 00:00:00,0.0,1.9280,0.0009,395.59,0.28,281.0,28.4,138.08,30.34,24.65,36.36,0.04,-272.74,-272.75,-43,567,-937,24.4,6.7,-14.2,24.7,6.7,-14.0,5.73,2.40,-22.2,29.8
2012-10-19 00:01:00,0.0,1.9281,0.0009,395.61,0.33,286.6,27.9,138.08,30.34,24.64,36.37,0.04,-272.75,-272.75,-43,567,-938,24.4,6.7,-14.2,24.7,6.7,-14.0,5.73,2.37,-22.1,29.9
2012-10-19 00:02:00,0.0,1.9279,0.0009,395.50,0.37,290.9,31.6,138.08,30.33,24.65,36.37,0.04,-272.75,-272.75,-43,567,-937,24.4,6.7,-14.2,24.8,6.6,-14.0,5.73,2.36,-22.2,29.9
2012-10-19 00:03:00,0.0,1.9279,0.0009,395.49,0.35,290.7,31.1,138.08,30.33,24.65,36.37,0.04,-272.74,-272.74,-43,567,-937,24.4,6.7,-14.2,24.7,6.6,-14.0,5.73,2.37,-22.1,29.9
2012-10-19 00:04:00,0.0,1.9284,0.0011,395.54,0.32,287.6,34.2,138.08,30.33,24.65,36.37,0.04,-272.75,-272.75,-43,567,-938,24.4,6.7,-14.3,24.7,6.6,-14.0,5.73,2.40,-22.2,29.9
2012-10-19 00:05:00,0.0,1.9277,0.0010,395.59,0.33,296.9,22.9,138.08,30.33,24.65,36.37,0.04,-272.75,-272.75,-43,567,-937,24.4,6.6,-14.3,24.7,6.6,-14.1,5.73,2.43,-22.2,29.9
2012-10-19 00:06:00,0.0,1.9285,0.0009,395.68,0.31,289.3,27.9,138.08,30.32,24.64,36.36,0.04,-272.75,-272.74,-43,567,-938,24.4,6.6,-14.3,24.7,6.6,-14.1,5.73,2.43,-22.2,29.9
2012-10-19 00:07:00,0.0,1.9284,0.0010,395.70,0.30,285.8,34.7,138.08,30.32,24.65,36.37,0.04,-272.75,-272.75,-43,567,-937,24.4,6.6,-14.3,24.7,6.6,-14.1,5.73,2.41,-22.2,29.9
2012-10-19 00:08:00,0.0,1.9287,0.0009,395.70,0.34,280.3,30.6,138.08,30.32,24.65,36.37,0.04,-272.75,-272.75,-43,567,-937,24.4,6.6,-14.4,24.8,6.6,-14.1,5.73,2.38,-22.2,29.9
2012-10-19 00:09:00,0.0,1.9289,0.0009,395.56,0.34,288.8,33.9,138.08,30.32,24.65,36.37,0.04,-272.75,-272.75,-43,567,-938,24.4,6.6,-14.4,24.7,6.6,-14.2,5.73,2.36,-22.2,29.9
2012-10-19 00:10:00,0.0,1.9278,0.0011,395.57,0.35,292.3,30.5,138.08,30.31,24.65,36.37,0.04,-272.74,-272.75,-43,567,-937,24.4,6.6,-14.3,24.7,6.6,-14.1,5.73,2.36,-22.2,29.9
2012-10-19 00:11:00,0.0,1.9280,0.0011,395.55,0.31,283.9,28.2,138.08,30.31,24.64,36.37,0.04,-272.75,-272.75,-43,567,-937,24.4,6.7,-14.2,24.7,6.7,-14.0,5.73,2.39,-22.2,29.8
2012-10-19 00:12:00,0.0,1.9287,0.0009,395.67,0.31,290.5,32.7,138.08,30.31,24.65,36.37,0.04,-272.75,-272.75,-43,567,-938,24.4,6.6,-14.3,24.7,6.6,-14.1,5.73,2.41,-22.2,29.8
2012-10-19 00:13:00,0.0,1.9283,0.0010,395.75,0.27,292.2,34.9,138.08,30.31,24.65,36.36,0.04,-272.75,-272.75,-43,567,-937,24.4,6.6,-14.4,24.7,6.6,-14.1,5.73,2.43,-22.2,29.8
2012-10-19 00:14:00,0.0,1.9281,0.0008,395.74,0.35,288.7,34.1,138.08,30.31,24.65,36.36,0.04,-272.75,-272.75,-43,567,-938,24.4,6.6,-14.3,24.7,6.6,-14.1,5.73,2.42,-22.2,29.8
2012-10-19 00:15:00,0.0,1.9290,0.0009,395.71,0.33,289.6,30.9,138.08,30.31,24.65,36.37,0.04,-272.75,-272.75,-43,567,-938,24.4,6.6,-14.4,24.7,6.6,-14.2,5.73,2.38,-22.2,29.8
2012-10-19 00:16:00,0.0,1.9289,0.0010,395.71,0.32,288.7,35.4,138.08,30.30,24.65,36.36,0.04,-272.74,-272.75,-43,567,-938,24.4,6.6,-14.4,24.7,6.6,-14.2,5.73,2.36,-22.2,29.8
2012-10-19 00:17:00,0.0,1.9294,0.0011,395.63,0.34,288.0,24.0,138.08,30.30,24.65,36.37,0.04,-272.75,-272.75,-43,567,-938,24.4,6.6,-14.4,24.7,6.6,-14.2,5.73,2.37,-22.1,29.8
2012-10-19 00:18:00,0.0,1.9292,0.0009,395.82,0.36,293.1,26.2,138.08,30.30,24.65,36.37,0.04,-272.75,-272.75,-43,567,-937,24.4,6.5,-14.4,24.7,6.6,-14.2,5.73,2.39,-22.2,29.8
2012-10-19 00:19:00,0.0,1.9292,0.0011,395.72,0.29,296.0,28.6,138.08,30.30,24.65,36.37,0.04,-272.74,-272.74,-43,567,-938,24.4,6.6,-14.5,24.7,6.6,-14.2,5.73,2.42,-22.1,29.8
2012-10-19 00:20:00,0.0,1.9292,0.0011,395.75,0.28,290.9,31.8,138.08,30.29,24.65,36.37,0.04,-272.74,-272.74,-43,567,-938,24.4,6.6,-14.4,24.7,6.6,-14.2,5.73,2.43,-22.2,29.8
2012-10-19 00:21:00,0.0,1.9296,0.0011,395.69,0.31,302.2,32.1,138.08,30.29,24.64,36.37,0.04,-272.74,-272.75,-43,567,-937,24.4,6.6,-14.4,24.7,6.6,-14.1,5.73,2.42,-22.2,29.8
2012-10-19 00:22:00,0.0,1.9293,0.0010,395.73,0.28,294.8,34.2,138.08,30.29,24.65,36.37,0.04,-272.74,-272.75,-43,567,-938,24.4,6.7,-14.2,24.7,6.6,-14.0,5.73,2.39,-22.2,29.8
2012-10-19 00:23:00,0.0,1.9296,0.0011,395.74,0.32,282.9,31.9,138.08,30.29,24.65,36.37,0.04,-272.74,-272.75,-43,567,-938,24.4,6.7,-14.2,24.7,6.7,-13.9,5.73,2.37,-22.2,29.9
2012-10-19 00:24:00,0.0,1.9296,0.0012,395.83,0.27,293.9,33.0,138.08,30.29,24.65,36.36,0.04,-272.75,-272.75,-43,567,-938,24.4,6.7,-14.2,24.7,6.7,-14.0,5.73,2.36,-22.2,29.9
2012-10-19 00:25:00,0.0,1.9298,0.0008,395.80,0.32,290.7,29.8,138.08,30.29,24.65,36.37,0.04,-272.75,-272.75,-43,567,-938,24.4,6.7,-14.2,24.7,6.7,-14.0,5.73,2.38,-22.2,29.9
2012-10-19 00:26:00,0.0,1.9297,0.0011,395.85,0.33,286.5,35.0,138.08,30.29,24.65,36.36,0.04,-272.74,-272.75,-43,567,-937,24.4,6.7,-14.2,24.7,6.7,-14.0,5.73,2.41,-22.2,29.8
2012-10-19 00:27:00,0.0,1.9293,0.0010,395.84,0.29,289.2,35.9,138.08,30.29,24.64,36.36,0.04,-272.75,-272.75,-43,567,-937,24.4,6.7,-14.1,24.7,6.7,-13.9,5.73,2.42,-22.2,29.8
2012-10-19 00:28:00,0.0,1.9284,0.0009,395.62,0.26,292.6,37.3,138.08,30.28,24.64,36.37,0.04,-272.75,-272.75,-43,567,-938,24.4,6.8,-14.0,24.7,6.8,-13.9,5.73,2.43,-22.2,29.8
2012-10-19 00:29:00,0.0,1.9290,0.0011,395.72,0.29,293.9,35.6,138.08,30.28,24.65,36.36,0.04,-272.75,-272.75,-43,567,-938,24.4,6.7,-14.1,24.7,6.7,-13.9,5.73,2.41,-22.2,29.8
2012-10-19 00:30:00,0.0,1.9292,0.0008,395.63,0.31,296.4,28.2,138.08,30.28,24.65,36.37,0.04,-272.75,-272.74,-43,567,-938,24.4,6.8,-14.1,24.7,6.7,-13.9,5.73,2.38,-22.2,29.8
2012-10-19 00:31:00,0.0,1.9290,0.0011,395.60,0.24,292.9,34.4,138.08,30.28,24.65,36.38,0.04,-272.75,-272.75,-43,567,-938,24.4,6.8,-14.1,24.7,6.8,-13.9,5.73,2.36,-22.2,29.8
2012-10-19 00:32:00,0.0,1.9290,0.0010,395.73,0.37,295.6,33.7,138.08,30.27,24.65,36.36,0.04,-272.75,-272.75,-43,567,-938,24.4,6.8,-14.0,24.7,6.8,-13.8,5.73,2.37,-22.2,29.8
2012-10-19 00:33:00,0.0,1.9283,0.0010,395.62,0.28,293.3,31.8,138.08,30.27,24.65,36.37,0.04,-272.74,-272.74,-43,567,-938,24.4,6.8,-14.0,24.7,6.8,-13.8,5.73,2.39,-22.2,29.8
2012-10-19 00:34:00,0.0,1.9283,0.0009,395.72,0.30,286.6,31.5,138.08,30.27,24.65,36.36,0.04,-272.75,-272.75,-43,567,-938,24.4,6.8,-14.0,24.7,6.8,-13.8,5.73,2.42,-22.2,29.8
2012-10-19 00:35:00,0.0,1.9290,0.0010,395.79,0.26,290.1,29.2,138.08,30.27,24.65,36.36,0.04,-272.75,-272.75,-43,567,-937,24.4,6.7,-14.1,24.7,6.7,-13.9,5.73,2.43,-22.2,29.8
2012-10-19 00:36:00,0.0,1.9289,0.0011,395.69,0.34,287.8,28.6,138.08,30.27,24.65,36.36,0.04,-272.75,-272.75,-43,567,-938,24.4,6.7,-14.2,24.7,6.7,-14.0,5.73,2.42,-22.2,29.8
2012-10-19 00:37:00,0.0,1.9272,0.0014,395.57,0.28,295.6,34.2,138.08,30.27,24.65,36.36,0.04,-272.75,-272.75,-43,567,-938,24.4,6.8,-14.1,24.7,6.7,-13.9,5.73,2.38,-22.1,29.8
2012-10-19 00:38:00,0.0,1.9268,0.0008,395.40,0.31,295.9,27.7,138.08,30.27,24.64,36.36,0.04,-272.75,-272.75,-42,567,-938,24.4,6.8,-14.0,24.7,6.8,-13.7,5.73,2.36,-22.2,29.8
2012-10-19 00:39:00,0.0,1.9268,0.0009,395.40,0.26,289.9,33.2,138.08,30.27,24.65,36.37,0.04,-272.75,-272.75,-42,567,-938,24.4,6.9,-13.9,24.7,6.9,-13.7,5.73,2.37,-22.1,29.8
2012-10-19 00:40:00,0.0,1.9264,0.0010,395.47,0.29,296.8,34.3,138.08,30.26,24.65,36.36,0.04,-272.75,-272.75,-43,567,-937,24.4,6.9,-13.9,24.7,6.9,-13.7,5.73,2.39,-22.2,29.9
2012-10-19 00:41:00,0.0,1.9264,0.0010,395.41,0.30,288.9,31.8,138.08,30.26,24.65,36.36,0.04,-272.75,-272.74,-43,567,-938,24.4,6.8,-13.9,24.7,6.8,-13.7,5.73,2.42,-22.2,29.9
2012-10-19 00:42:00,0.0,1.9259,0.0010,395.43,0.25,298.3,31.3,138.08,30.26,24.65,36.36,0.04,-272.74,-272.75,-43,567,-938,24.4,6.8,-14.0,24.7,6.8,-13.8,5.73,2.43,-22.2,29.8
2012-10-19 00:43:00,0.0,1.9258,0.0009,395.39,0.32,295.4,30.1,138.08,30.26,24.65,36.37,0.04,-272.75,-272.75,-43,567,-937,24.4,6.8,-14.0,24.7,6.8,-13.8,5.73,2.41,-22.2,29.8
2012-10-19 00:44:00,0.0,1.9261,0.0010,395.37,0.29,298.1,35.4,138.08,30.26,24.65,36.36,0.04,-272.75,-272.74,-43,567,-938,24.4,6.8,-14.0,24.7,6.8,-13.8,5.73,2.39,-22.2,29.8
2012-10-19 00:45:00,0.0,1.9253,0.0008,395.32,0.32,300.0,31.5,138.08,30.26,24.65,36.37,0.04,-272.75,-272.75,-43,567,-938,24.4,6.8,-14.0,24.7,6.8,-13.8,5.73,2.37,-22.2,29.9
2012-10-19 00:46:00,0.0,1.9264,0.0011,395.41,0.31,295.4,32.1,138.08,30.25,24.64,36.37,0.04,-272.75,-272.75,-43,567,-938,24.4,6.8,-14.1,24.7,6.8,-13.9,5.73,2.36,-22.2,29.8
2012-10-19 00:47:00,0.0,1.9255,0.0010,395.34,0.28,301.3,32.9,138.08,30.25,24.65,36.37,0.04,-272.75,-272.75,-43,567,-938,24.4,6.8,-14.1,24.7,6.8,-13.9,5.73,2.39,-22.2,29.8
2012-10-19 00:48:00,0.0,1.9251,0.0010,395.32,0.31,285.8,32.3,138.08,30.25,24.65,36.37,0.04,-272.75,-272.75,-43,567,-937,24.4,6.8,-14.1,24.7,6.8,-13.8,5.73,2.42,-22.2,29.8
2012-10-19 00:49:00,0.0,1.9250,0.0008,395.24,0.31,295.7,29.8,138.08,30.25,24.64,36.37,0.04,-272.75,-272.75,-43,567,-938,24.3,6.8,-14.1,24.7,6.8,-13.8,5.73,2.43,-22.2,29.8
2012-10-19 00:50:00,0.0,1.9250,0.0008,395.26,0.29,292.3,41.4,138.08,30.25,24.65,36.37,0.04,-272.75,-272.75,-43,567,-938,24.4,6.8,-14.1,24.7,6.8,-13.8,5.73,2.42,-22.2,29.8
2012-10-19 00:51:00,0.0,1.9249,0.0011,395.30,0.30,299.5,29.9,138.09,30.25,24.65,36.37,0.04,-272.75,-272.75,-43,567,-938,24.4,6.8,-14.1,24.7,6.8,-13.9,5.73,2.39,-22.2,29.8
2012-10-19 00:52:00,0.0,1.9240,0.0010,395.25,0.31,301.2,31.8,138.08,30.25,24.65,36.37,0.04,-272.75,-272.75,-43,567,-938,24.4,6.8,-14.0,24.7,6.8,-13.8,5.73,2.37,-22.2,29.8
2012-10-19 00:53:00,0.0,1.9244,0.0009,395.21,0.33,295.1,34.4,138.08,30.24,24.65,36.37,0.04,-272.74,-272.75,-43,567,-937,24.4,6.8,-14.1,24.7,6.8,-13.8,5.73,2.36,-22.2,29.8
2012-10-19 00:54:00,0.0,1.9239,0.0010,395.13,0.33,293.2,34.5,138.08,30.24,24.65,36.37,0.04,-272.74,-272.75,-43,567,-938,24.3,6.8,-14.1,24.7,6.8,-13.8,5.73,2.38,-22.2,29.8
2012-10-19 00:55:00,0.0,1.9242,0.0009,395.29,0.31,297.1,34.5,138.08,30.24,24.65,36.36,0.04,-272.75,-272.75,-43,567,-938,24.3,6.8,-14.1,24.7,6.8,-13.8,5.73,2.41,-22.2,29.8
2012-10-19 00:56:00,0.0,1.9242,0.0009,395.23,0.34,293.8,24.9,138.08,30.24,24.65,36.37,0.04,-272.75,-272.75,-43,567,-938,24.3,6.8,-14.1,24.7,6.8,-13.8,5.73,2.43,-22.2,29.8
2012-10-19 00:57:00,0.0,1.9240,0.0011,395.21,0.28,297.9,25.5,138.08,30.24,24.65,36.37,0.04,-272.75,-272.75,-43,567,-938,24.3,6.8,-14.1,24.7,6.8,-13.8,5.73,2.42,-22.2,29.8
2012-10-19 00:58:00,0.0,1.9241,0.0010,395.24,0.33,299.5,31.7,138.08,30.23,24.65,36.36,0.04,-272.75,-272.75,-43,567,-937,24.3,6.8,-14.1,24.7,6.8,-13.8,5.73,2.40,-22.2,29.8
2012-10-19 00:59:00,0.0,1.9241,0.0010,395.22,0.37,296.9,32.4,138.08,30.23,24.65,36.37,0.04,-272.75,-272.75,-43,567,-938,24.3,6.8,-14.1,24.7,6.8,-13.8,5.73,2.37,-22.2,29.8
2012-10-19 01:00:00,0.0,1.9233,0.0010,395.19,0.32,297.6,26.3,138.08,30.23,24.65,36.36,0.04,-272.74,-272.74,-43,567,-938,24.3,6.8,-14.0,24.7,6.8,-13.8,5.73,2.36,-22.2,29.8
2012-10-19 01:01:00,0.0,1.9236,0.0009,395.07,0.32,296.1,33.4,138.08,30.23,24.65,36.37,0.04,-272.75,-272.75,-43,567,-937,24.4,6.8,-13.9,24.7,6.9,-13.7,5.73,2.38,-22.2,29.8
2012-10-19 01:02:00,0.0,1.9234,0.0008,395.22,0.34,298.3,29.0,138.08,30.23,24.64,36.36,0.04,-272.75,-272.75,-42,567,-938,24.3,6.9,-13.9,24.7,6.9,-13.6,5.73,2.41,-22.1,29.8
2012-10-19 01:03:00,0.0,1.9231,0.0008,395.07,0.26,300.2,31.4,138.09,30.23,24.65,36.37,0.04,-272.74,-272.75,-43,567,-937,24.3,6.9,-13.8,24.7,6.9,-13.5,5.73,2.43,-22.1,29.8
2012-10-19 01:04:00,0.0,1.9237,0.0009,395.17,0.33,292.8,33.8,138.08,30.23,24.65,36.37,0.04,-272.74,-272.75,-43,567,-937,24.3,6.9,-13.8,24.7,6.9,-13.6,5.73,2.43,-22.1,29.8
2012-10-19 01:05:00,0.0,1.9233,0.0010,395.14,0.37,297.7,30.8,138.08,30.23,24.65,36.38,0.04,-272.75,-272.75,-43,567,-938,24.3,6.9,-13.9,24.7,6.9,-13.7,5.73,2.40,-22.2,29.8
2012-10-19 01:06:00,0.0,1.9238,0.0009,395.30,0.36,295.2,32.8,138.08,30.23,24.65,36.36,0.04,-272.75,-272.75,-43,567,-938,24.3,6.9,-13.9,24.7,6.9,-13.7,5.73,2.37,-22.2,29.8
2012-10-19 01:07:00,0.0,1.9239,0.0009,395.16,0.29,291.0,36.0,138.08,30.22,24.65,36.37,0.04,-272.75,-272.75,-43,567,-938,24.3,6.8,-14.0,24.7,6.8,-13.8,5.73,2.36,-22.2,29.9
2012-10-19 01:08:00,0.0,1.9245,0.0009,395.25,0.31,289.9,28.0,138.08,30.22,24.65,36.37,0.04,-272.75,-272.75,-43,567,-937,24.3,6.8,-14.1,24.7,6.8,-13.8,5.73,2.37,-22.2,29.8
2012-10-19 01:09:00,0.0,1.9243,0.0009,395.31,0.28,290.2,28.4,138.08,30.22,24.65,36.37,0.04,-272.75,-272.75,-43,567,-938,24.3,6.8,-14.1,24.7,6.7,-13.9,5.73,2.41,-22.2,29.9
2012-10-19 01:10:00,0.0,1.9244,0.0010,395.28,0.33,297.0,33.2,138.08,30.22,24.65,36.37,0.04,-272.75,-272.75,-43,567,-938,24.3,6.8,-14.1,24.7,6.8,-13.9,5.73,2.43,-22.2,29.9
2012-10-19 01:11:00,0.0,1.9249,0.0011,395.23,0.33,295.5,32.0,138.08,30.22,24.64,36.37,0.04,-272.75,-272.75,-43,567,-938,24.3,6.8,-14.1,24.7,6.8,-13.9,5.73,2.43,-22.2,29.8
2012-10-19 01:12:00,0.0,1.9242,0.0008,395.25,0.32,292.7,30.4,138.09,30.22,24.64,36.37,0.04,-272.75,-272.75,-43,567,-938,24.3,6.8,-14.1,24.7,6.8,-13.9,5.73,2.40,-22.2,29.8
2012-10-19 01:13:00,0.0,1.9248,0.0010,395.32,0.35,292.9,29.6,138.09,30.22,24.65,36.36,0.04,-272.75,-272.75,-43,567,-938,24.3,6.8,-14.1,24.6,6.8,-13.9,5.73,2.38,-22.2,29.8
2012-10-19 01:14:00,0.0,1.9248,0.0009,395.27,0.26,290.6,28.8,138.09,30.22,24.64,36.37,0.04,-272.75,-272.75,-42,567,-938,24.3,6.8,-14.1,24.7,6.8,-13.9,5.73,2.36,-22.2,29.8
2012-10-19 01:15:00,0.0,1.9252,0.0009,395.29,0.32,299.6,31.2,138.08,30.22,24.64,36.37,0.04,-272.75,-272.75,-42,567,-938,24.3,6.8,-14.1,24.6,6.8,-13.9,5.73,2.37,-22.2,29.8
2012-10-19 01:16:00,0.0,1.9247,0.0010,395.28,0.32,301.0,30.7,138.09,30.22,24.65,36.37,0.04,-272.74,-272.75,-42,567,-938,24.3,6.8,-14.1,24.6,6.8,-13.9,5.73,2.40,-22.2,29.8
2012-10-19 01:17:00,0.0,1.9240,0.0009,395.20,0.33,289.1,23.8,138.08,30.21,24.64,36.37,0.04,-272.75,-272.75,-42,567,-938,24.3,6.8,-14.1,24.6,6.8,-13.8,5.73,2.43,-22.2,29.7
2012-10-19 01:18:00,0.0,1.9236,0.0008,395.36,0.35,295.1,31.7,138.09,30.21,24.65,36.36,0.04,-272.75,-272.75,-43,567,-938,24.3,6.8,-14.0,24.6,6.8,-13.8,5.73,2.43,-22.1,29.8
2012-10-19 01:19:00,0.0,1.9231,0.0011,395.17,0.30,294.3,32.0,138.08,30.21,24.65,36.37,0.04,-272.75,-272.75,-43,567,-938,24.3,6.8,-14.0,24.6,6.8,-13.7,5.73,2.41,-22.2,29.8
2012-10-19 01:20:00,0.0,1.9232,0.0010,395.24,0.34,293.0,28.4,138.08,30.21,24.65,36.36,0.04,-272.74,-272.75,-43,567,-938,24.3,6.9,-13.9,24.6,6.9,-13.7,5.73,2.38,-22.2,29.8
2012-10-19 01:21:00,0.0,1.9232,0.0010,395.19,0.33,300.6,31.4,138.08,30.21,24.65,36.36,0.04,-272.75,-272.75,-43,567,-938,24.4,6.9,-13.9,24.7,6.9,-13.6,5.73,2.36,-22.2,29.8
2012-10-19 01:22:00,0.0,1.9236,0.0010,395.32,0.32,295.5,29.7,138.08,30.21,24.65,36.36,0.04,-272.75,-272.75,-43,567,-938,24.4,6.9,-13.9,24.7,6.9,-13.7,5.73,2.37,-22.1,29.8
2012-10-19 01:23:00,0.0,1.9238,0.0010,395.11,0.34,291.5,32.4,138.08,30.20,24.65,36.37,0.04,-272.74,-272.75,-43,567,-938,24.3,6.8,-14.0,24.7,6.8,-13.7,5.73,2.39,-22.1,29.8
2012-10-19 01:24:00,0.0,1.9244,0.0011,395.18,0.27,293.4,30.3,138.08,30.20,24.65,36.37,0.04,-272.75,-272.74,-43,567,-938,24.4,6.8,-14.0,24.7,6.8,-13.8,5.73,2.42,-22.1,29.8
2012-10-19 01:25:00,0.0,1.9239,0.0013,395.17,0.31,294.9,31.1,138.08,30.20,24.65,36.37,0.04,-272.75,-272.75,-42,567,-938,24.4,6.8,-14.0,24.7,6.8,-13.8,5.73,2.43,-22.1,29.8
2012-10-19 01:26:00,0.0,1.9238,0.0010,395.25,0.31,300.6,29.0,138.08,30.20,24.65,36.37,0.04,-272.75,-272.75,-43,567,-938,24.3,6.8,-14.1,24.7,6.8,-13.8,5.73,2.42,-22.1,29.8
2012-10-19 01:27:00,0.0,1.9236,0.0010,395.28,0.32,298.5,30.8,138.08,30.20,24.65,36.37,0.04,-272.75,-272.74,-42,567,-938,24.4,6.7,-14.2,24.7,6.7,-13.9,5.73,2.39,-22.1,29.8
2012-10-19 01:28:00,0.0,1.9242,0.0009,395.28,0.32,308.7,31.6,138.08,30.20,24.64,36.37,0.04,-272.75,-272.75,-42,567,-938,24.4,6.7,-14.2,24.7,6.7,-14.0,5.73,2.37,-22.2,29.8
2012-10-19 01:29:00,0.0,1.9232,0.0009,395.14,0.32,304.3,35.3,138.08,30.20,24.65,36.37,0.04,-272.75,-272.75,-42,567,-938,24.3,6.8,-14.1,24.7,6.8,-13.9,5.73,2.36,-22.1,29.8
2012-10-19 01:30:00,0.0,1.9239,0.0009,395.23,0.29,289.8,30.2,138.08,30.20,24.64,36.37,0.04,-272.74,-272.74,-42,567,-938,24.3,6.7,-14.2,24.7,6.7,-13.9,5.73,2.38,-22.1,29.8
2012-10-19 01:31:00,0.0,1.9235,0.0009,395.26,0.31,299.2,37.9,138.08,30.20,24.65,36.37,0.04,-272.75,-272.75,-42,567,-938,24.3,6.7,-14.2,24.7,6.7,-14.0,5.73,2.41,-22.1,29.9
2012-10-19 01:32:00,0.0,1.9232,0.0010,395.14,0.34,294.7,36.9,138.08,30.20,24.65,36.37,0.04,-272.75,-272.75,-42,567,-938,24.3,6.8,-14.1,24.7,6.8,-13.9,5.73,2.44,-22.1,29.9
2012-10-19 01:33:00,0.0,1.9248,0.0011,395.36,0.34,296.6,26.8,138.08,30.20,24.64,36.37,0.04,-272.75,-272.75,-43,567,-938,24.3,6.7,-14.2,24.7,6.7,-14.0,5.73,2.42,-22.2,29.8
2012-10-19 01:34:00,0.0,1.9249,0.0009,395.43,0.35,301.7,32.5,138.08,30.20,24.65,36.36,0.04,-272.74,-272.74,-43,567,-938,24.3,6.6,-14.3,24.7,6.6,-14.1,5.73,2.40,-22.1,29.8
2012-10-19 01:35:00,0.0,1.9250,0.0008,395.36,0.36,297.2,33.6,138.08,30.20,24.65,36.36,0.04,-272.75,-272.75,-43,567,-938,24.3,6.6,-14.4,24.7,6.6,-14.1,5.73,2.37,-22.1,29.8
2012-10-19 01:36:00,0.0,1.9242,0.0010,395.33,0.26,300.0,29.3,138.08,30.20,24.65,36.36,0.04,-272.75,-272.75,-43,567,-938,24.3,6.6,-14.4,24.7,6.6,-14.1,5.73,2.37,-22.1,29.8
2012-10-19 01:37:00,0.0,1.9243,0.0011,395.32,0.27,306.7,34.5,138.08,30.20,24.65,36.37,0.04,-272.74,-272.75,-42,567,-938,24.3,6.6,-14.4,24.7,6.6,-14.1,5.73,2.38,-22.1,29.8
2012-10-19 01:38:00,0.0,1.9250,0.0010,395.26,0.32,297.7,31.6,138.08,30.19,24.64,36.37,0.04,-272.75,-272.74,-42,567,-938,24.3,6.6,-14.4,24.6,6.6,-14.2,5.73,2.41,-22.1,29.8
2012-10-19 01:39:00,0.0,1.9249,0.0009,395.33,0.32,299.8,36.7,138.08,30.19,24.64,36.37,0.04,-272.75,-272.75,-42,567,-938,24.3,6.6,-14.4,24.7,6.6,-14.2,5.73,2.43,-22.1,29.8
2012-10-19 01:40:00,0.0,1.9253,0.0011,395.32,0.32,296.6,26.0,138.08,30.19,24.65,36.37,0.04,-272.75,-272.75,-42,567,-938,24.3,6.6,-14.4,24.7,6.6,-14.1,5.73,2.43,-22.1,29.8
2012-10-19 01:41:00,0.0,1.9232,0.0016,395.19,0.31,296.6,37.0,138.08,30.19,24.65,36.36,0.04,-272.74,-272.75,-42,567,-938,24.3,6.7,-14.3,24.7,6.7,-14.1,5.73,2.40,-22.1,29.8
2012-10-19 01:42:00,0.0,1.9205,0.0009,394.93,0.32,295.3,33.2,138.08,30.19,24.65,36.37,0.04,-272.75,-272.75,-42,567,-938,24.4,6.8,-14.0,24.7,6.8,-13.8,5.73,2.37,-22.1,29.9
2012-10-19 01:43:00,0.0,1.9225,0.0009,395.03,0.36,301.8,33.8,138.08,30.19,24.64,36.37,0.04,-272.75,-272.75,-42,567,-938,24.4,6.9,-13.9,24.7,6.9,-13.7,5.73,2.36,-22.1,29.8
2012-10-19 01:44:00,0.0,1.9205,0.0010,394.94,0.32,304.9,27.3,138.08,30.19,24.65,36.37,0.04,-272.74,-272.75,-42,567,-938,24.4,6.9,-13.8,24.7,6.9,-13.6,5.73,2.38,-22.1,29.9
2012-10-19 01:45:00,0.0,1.9202,0.0010,394.91,0.34,302.5,28.7,138.08,30.19,24.65,36.37,0.04,-272.74,-272.75,-42,567,-938,24.4,7.0,-13.6,24.7,7.0,-13.4,5.73,2.40,-22.1,29.8
2012-10-19 01:46:00,0.0,1.9200,0.0011,394.92,0.37,303.8,32.9,138.08,30.19,24.65,36.37,0.04,-272.75,-272.75,-43,567,-938,24.4,7.0,-13.6,24.7,7.1,-13.3,5.73,2.43,-22.1,29.8
2012-10-19 01:47:00,0.0,1.9189,0.0009,394.79,0.37,298.4,30.8,138.08,30.19,24.65,36.37,0.04,-272.75,-272.75,-43,567,-938,24.4,7.1,-13.6,24.7,7.1,-13.3,5.73,2.43,-22.1,29.8
2012-10-19 01:48:00,0.0,1.9177,0.0019,394.60,0.35,293.9,26.2,138.08,30.19,24.65,36.37,0.04,-272.75,-272.75,-43,567,-938,24.4,7.1,-13.4,24.7,7.1,-13.2,5.73,2.40,-22.1,29.9
2012-10-19 01:49:00,0.0,1.9161,0.0008,394.48,0.31,297.1,29.9,138.08,30.19,24.65,36.37,0.04,-272.75,-272.75,-43,567,-938,24.3,7.3,-13.2,24.7,7.3,-12.9,5.73,2.37,-22.1,29.9
2012-10-19 01:50:00,0.0,1.9168,0.0009,394.46,0.33,308.1,32.8,138.08,30.19,24.64,36.37,0.04,-272.75,-272.75,-43,567,-938,24.4,7.3,-13.1,24.7,7.3,-12.9,5.73,2.36,-22.1,29.8
2012-10-19 01:51:00,0.0,1.9173,0.0008,394.60,0.34,301.1,33.4,138.08,30.19,24.65,36.36,0.04,-272.74,-272.75,-42,567,-938,24.4,7.3,-13.1,24.7,7.3,-12.9,5.73,2.37,-22.1,29.8
2012-10-19 01:52:00,0.0,1.9168,0.0008,394.43,0.39,293.8,28.4,138.08,30.19,24.65,36.37,0.04,-272.75,-272.75,-43,567,-938,24.3,7.3,-13.1,24.7,7.3,-12.9,5.73,2.40,-22.1,29.8
2012-10-19 01:53:00,0.0,1.9163,0.0009,394.55,0.35,302.0,42.0,138.08,30.19,24.65,36.36,0.04,-272.74,-272.75,-43,567,-938,24.4,7.4,-13.0,24.7,7.4,-12.8,5.73,2.43,-22.1,29.8
2012-10-19 01:54:00,0.0,1.9173,0.0009,394.59,0.35,294.6,30.1,138.08,30.19,24.64,36.37,0.04,-272.74,-272.75,-43,567,-938,24.3,7.4,-13.1,24.7,7.4,-12.8,5.73,2.43,-22.1,29.8
2012-10-19 01:55:00,0.0,1.9170,0.0010,394.48,0.29,299.2,30.1,138.08,30.19,24.64,36.37,0.04,-272.74,-272.75,-43,567,-938,24.4,7.4,-13.1,24.7,7.4,-12.8,5.73,2.41,-22.1,29.8
2012-10-19 01:56:00,0.0,1.9176,0.0009,394.62,0.35,291.3,26.6,138.08,30.19,24.65,36.37,0.04,-272.75,-272.75,-43,567,-938,24.4,7.3,-13.1,24.7,7.4,-12.8,5.73,2.37,-22.1,29.8
2012-10-19 01:57:00,0.0,1.9188,0.0010,394.67,0.34,290.8,29.7,138.08,30.19,24.65,36.37,0.04,-272.74,-272.75,-43,567,-938,24.3,7.3,-13.2,24.7,7.3,-12.9,5.73,2.35,-22.1,29.9
2012-10-19 01:58:00,0.0,1.9185,0.0010,394.78,0.31,297.2,31.0,138.08,30.19,24.65,36.36,0.04,-272.75,-272.75,-43,567,-938,24.3,7.2,-13.3,24.7,7.2,-13.1,5.73,2.37,-22.1,29.8
2012-10-19 01:59:00,0.0,1.9180,0.0012,394.67,0.35,289.5,30.0,138.08,30.19,24.64,36.37,0.04,-272.75,-272.75,-43,567,-938,24.4,7.2,-13.3,24.7,7.3,-13.0,5.73,2.41,-22.1,29.8
2012-10-19 02:00:00,0.0,1.9189,0.0010,394.64,0.30,290.1,29.8,138.08,30.19,24.64,36.37,0.04,-272.74,-272.75,-43,567,-938,24.4,7.2,-13.3,24.7,7.2,-13.0,5.73,2.43,-22.1,29.8
2012-10-19 02:01:00,0.0,1.9217,0.0010,395.06,0.29,303.4,35.9,138.08,30.19,24.64,36.37,0.04,-272.74,-272.74,-43,567,-938,24.4,7.1,-13.5,24.7,7.1,-13.2,5.73,2.43,-22.1,29.8
2012-10-19 02:02:00,0.0,1.9213,0.0012,394.89,0.27,301.6,36.4,138.08,30.19,24.65,36.37,0.04,-272.75,-272.75,-42,567,-937,24.4,7.0,-13.7,24.7,7.0,-13.4,5.73,2.39,-22.1,29.8
2012-10-19 02:03:00,0.0,1.9200,0.0008,394.82,0.33,295.6,29.1,138.08,30.19,24.65,36.36,0.04,-272.75,-272.75,-43,567,-938,24.4,7.0,-13.7,24.7,7.0,-13.4,5.73,2.37,-22.1,29.8
2012-10-19 02:04:00,0.0,1.9216,0.0009,394.98,0.33,304.6,30.8,138.08,30.19,24.65,36.37,0.04,-272.75,-272.75,-43,567,-938,24.4,6.9,-13.8,24.7,7.0,-13.5,5.73,2.36,-22.1,29.8
2012-10-19 02:05:00,0.0,1.9219,0.0010,395.03,0.34,298.9,36.5,138.08,30.19,24.65,36.37,0.04,-272.75,-272.75,-43,567,-938,24.4,6.8,-13.9,24.7,6.9,-13.7,5.73,2.39,-22.1,29.8
2012-10-19 02:06:00,0.0,1.9224,0.0010,395.09,0.33,289.1,30.3,138.08,30.19,24.64,36.36,0.04,-272.75,-272.75,-43,567,-938,24.4,6.8,-14.0,24.7,6.8,-13.8,5.73,2.42,-22.1,29.8
2012-10-19 02:07:00,0.0,1.9214,0.0008,394.93,0.34,304.2,27.3,138.08,30.19,24.64,36.37,0.04,-272.75,-272.75,-43,567,-938,24.4,6.8,-14.0,24.7,6.8,-13.8,5.73,2.43,-22.1,29.8
2012-10-19 02:08:00,0.0,1.9212,0.0011,395.05,0.27,303.0,27.8,138.08,30.19,24.64,36.36,0.04,-272.74,-272.75,-43,567,-938,24.4,6.8,-14.0,24.7,6.8,-13.8,5.73,2.42,-22.1,29.8
2012-10-19 02:09:00,0.0,1.9211,0.0011,394.91,0.31,300.8,28.1,138.08,30.19,24.64,36.37,0.04,-272.74,-272.75,-43,567,-938,24.4,6.8,-14.0,24.7,6.8,-13.7,5.73,2.38,-22.1,29.8
2012-10-19 02:10:00,0.0,1.9211,0.0011,394.89,0.32,304.6,29.2,138.08,30.19,24.65,36.37,0.04,-272.75,-272.74,-43,567,-938,24.4,6.8,-13.9,24.7,6.9,-13.7,5.73,2.35,-22.1,29.8
2012-10-19 02:11:00,0.0,1.9215,0.0010,394.99,0.31,301.5,33.1,138.08,30.19,24.65,36.36,0.04,-272.74,-272.75,-43,567,-938,24.4,6.8,-13.9,24.7,6.9,-13.7,5.73,2.37,-22.1,29.9
2012-10-19 02:12:00,0.0,1.9211,0.0009,394.90,0.28,298.9,28.0,138.08,30.19,24.65,36.37,0.04,-272.75,-272.75,-42,567,-938,24.4,6.8,-13.9,24.7,6.9,-13.7,5.73,2.40,-22.1,29.9
2012-10-19 02:13:00,0.0,1.9208,0.0009,394.93,0.30,296.2,32.8,138.08,30.19,24.65,36.37,0.04,-272.75,-272.75,-43,567,-938,24.4,6.9,-13.9,24.7,6.9,-13.7,5.73,2.43,-22.1,29.8
2012-10-19 02:14:00,0.0,1.9200,0.0008,394.78,0.32,300.7,35.1,138.08,30.19,24.65,36.38,0.04,-272.75,-272.75,-42,567,-938,24.4,6.9,-13.9,24.7,6.9,-13.6,5.73,2.43,-22.1,29.8
2012-10-19 02:15:00,0.0,1.9210,0.0010,394.79,0.33,302.4,37.8,138.08,30.19,24.64,36.37,0.04,-272.75,-272.75,-42,567,-938,24.4,6.8,-13.9,24.7,6.9,-13.7,5.73,2.40,-22.1,29.8
2012-10-19 02:16:00,0.0,1.9215,0.0010,394.96,0.32,295.7,28.7,138.08,30.19,24.65,36.36,0.04,-272.75,-272.75,-42,567,-938,24.4,6.8,-14.0,24.7,6.8,-13.8,5.73,2.37,-22.1,29.8